Regional Weather Roundup
Issued by NWS Raleigh/Durham, NC

Home | Current Version | Previous Version | Text Only | Print | Product List | Glossary On
Versions: 1 2 3 4 5 6 7 8 9 10 11 12 13 14 15 16 17 18 19 20 21 22 23 24 25 26 27 28 29 30 31 32 33 34 35 36 37 38 39 40 41 42 43 44 45 46 47 48 49 50
000
ASUS42 KRAH 210610
RWRRAH
NORTH CAROLINA WEATHER ROUNDUP
NATIONAL WEATHER SERVICE RALEIGH NC
100 AM EST SAT JAN 21 2017

NOTE: "FAIR" INDICATES FEW OR NO CLOUDS BELOW 12,000 FEET WITH NO
SIGNIFICANT WEATHER AND/OR OBSTRUCTIONS TO VISIBILITY.

NCZ001-053-055-056-065-067-210700-
WESTERN NORTH CAROLINA

CITY           SKY/WX    TMP DP  RH WIND       PRES   REMARKS
ASHEVILLE      MOCLDY    48  45  89 CALM      29.90F
JEFFERSON      PTCLDY    45  44  97 SW3       29.91F
MORGANTON      FOG       52  52 100 CALM      29.95S VSB 1/2
HICKORY        FOG       52  52 100 CALM      29.90F VSB 1/4
RUTHERFORDTON  CLOUDY    52  52 100 CALM      29.91S FOG
MOUNT AIRY     NOT AVBL
BOONE          FOG       39  39 100 CALM      29.92F VSB 1/2
$$

NCZ021-022-025-041-071-084-088-210700-
CENTRAL NORTH CAROLINA

CITY           SKY/WX    TMP DP  RH WIND       PRES   REMARKS
CHARLOTTE      FOG       53  52  96 CALM      29.91S VSB 1/4
GREENSBORO     FOG       51  51 100 CALM      29.90S VSB 1/4
WINSTON-SALEM  FOG       51  50  96 CALM      29.91F VSB 1
RALEIGH-DURHAM FOG       53  52  96 CALM      29.92S VSB 1/8
FORT BRAGG     FOG       54  54 100 CALM      29.90R VSB 1/4
FAYETTEVILLE   FOG       54  53  97 CALM      29.90S VSB 1/4
BURLINGTON     FOG       54  54 100 CALM      29.90F VSB 1/2
LAURINBURG     FOG       53  53 100 CALM      29.90S VSB 1/2
$$

NCZ011-015-027-028-043-044-047-080-103-210700-
NORTHEASTERN NORTH CAROLINA

CITY           SKY/WX    TMP DP  RH WIND       PRES   REMARKS
ROCKY MT-WILSO CLOUDY    50  50 100 NE5       29.92F FOG
GREENVILLE     CLOUDY    52  52 100 CALM      29.94F FOG
ELIZABETH CITY CLOUDY    48  48 100 NW5       29.93S FOG
MANTEO         FOG       47  47 100 N5        29.92S VSB 1/2
CAPE HATTERAS  PTCLDY    51  49  92 VRB5      29.90F FOG
$$

NCZ078-087-090-091-093-098-101-210700-
SOUTHEASTERN NORTH CAROLINA

CITY           SKY/WX    TMP DP  RH WIND       PRES   REMARKS
LUMBERTON      MOCLDY    56  55  97 NE3       29.89F
GOLDSBORO      FOG       52  52 100 NE3       29.89F VSB 3/4
KENANSVILLE    FOG       50  50 100 CALM      29.90F VSB 1/2
NEW BERN       FOG       50  49  96 NE9       29.92F VSB 1/2
CHERRY POINT   FOG       51  50  96 N6        29.92S VSB 1
BEAUFORT       MOCLDY    51  51 100 N6        29.90F
JACKSONVILLE   PTCLDY    53  53 100 N6        29.90F
WILMINGTON     FOG       52  52 100 CALM      29.90F VSB 1/4
$$




USA.gov is the U.S. government's official web portal to all federal, state and local government web resources and services.